Flag for Germany Weather past 2 weeks in Rheinfelden (Baden), Baden-Württemberg, Germany

Now
39 °F

Partly cloudy.


Feels Like: 37 °F
Forecast: 32 / 47 °F
Wind: 3 mph from Southwest

Location: Bale-Mulhouse

Current Time: Dec 21, 2014 at 5:26:47 AM

Latest Report: Dec 21, 2014 at 5:00 AM


Visibility: N/A

Pressure: 30.54 "Hg

Humidity: 87%

Dew point: 36 °F

Location of Rheinfelden (Baden)Location

Historic Weather in Rheinfelden (Baden) — Graph

°F

Rheinfelden (Baden) temperature yesterday

Maximum temperature yesterday: 50 °F (at 12:00 AM)
Minimum temperature yesterday: 41 °F (at 8:00 AM)
Average temperature yesterday: 45 °F

Past Weeks' High & Low Weather Summary

 TemperatureHumidityPressure
High55 °F (Dec 18, 4:00 PM)100% (Dec 6, 4:00 AM)30.54 "Hg (Dec 6, 4:00 AM)
Low28 °F (Dec 10, 2:00 AM)58% (Dec 12, 11:30 AM)29.80 "Hg (Dec 12, 6:00 PM)
Average43 °F87%30.12 "Hg
* Reported Dec 6 4:00 AM — Dec 21 4:30 AM, Rheinfelden (Baden), Weather by CustomWeather, © 2014

Note: Actual official high and low records may vary slightly from our data, if they occured in-between our weather recording intervals... More about our weather records

Advertising

Rheinfelden (Baden) weather history for previous 24 hours

 ConditionsComfort  
Time TempWeatherWind HumidityBarometerVisibility
4:30 AM
Dec 21
39 °FPartly cloudy.5 mph87%30.54 "HgN/A
4:00 AM39 °FPartly cloudy.5 mph87%30.54 "HgN/A
3:30 AM39 °FPassing clouds.5 mph87%30.54 "HgN/A
3:00 AM41 °FClear.6 mph81%30.54 "HgN/A
2:30 AM41 °FClear.9 mph81%30.51 "HgN/A
2:00 AM41 °FClear.13 mph87%30.51 "HgN/A
1:30 AM41 °FMostly cloudy.13 mph81%30.51 "HgN/A
1:00 AM41 °FClear.14 mph87%30.51 "HgN/A
12:30 AM41 °FPassing clouds.14 mph81%30.48 "HgN/A
12:00 AM41 °FPartly cloudy.10 mph81%30.51 "HgN/A
11:30 PM
Dec 20
41 °FPartly cloudy.9 mph81%30.51 "HgN/A
10:30 PM43 °FPartly cloudy.13 mph76%30.48 "HgN/A
10:00 PM43 °FPassing clouds.15 mph71%30.45 "HgN/A
9:30 PM43 °FPassing clouds.18 mph71%30.45 "HgN/A
9:00 PM43 °FPassing clouds.16 mph71%30.45 "HgN/A
8:30 PM43 °FPassing clouds.12 mph71%30.45 "HgN/A
8:00 PM43 °FPassing clouds.16 mph71%30.42 "HgN/A
7:30 PM43 °FPassing clouds.14 mph71%30.42 "HgN/A
7:00 PM43 °FPassing clouds.14 mph71%30.42 "HgN/A
6:30 PM43 °FPassing clouds.17 mph71%30.42 "HgN/A
6:00 PM43 °FPassing clouds.13 mph71%30.42 "HgN/A
5:30 PM43 °FPassing clouds.12 mph71%30.39 "HgN/A
5:00 PM43 °FSprinkles. Passing clouds.14 mph71%30.39 "HgN/A
4:30 PM43 °FPartly sunny.8 mph71%30.39 "HgN/A
4:00 PM43 °FPartly sunny.7 mph71%30.39 "HgN/A
3:30 PM45 °FPartly sunny.7 mph66%30.36 "HgN/A
3:00 PM45 °FPartly sunny.9 mph66%30.36 "HgN/A
2:30 PM45 °FPartly sunny.12 mph66%30.36 "HgN/A
2:00 PM45 °FPartly sunny.13 mph66%30.36 "HgN/A
1:30 PM45 °FPartly sunny.16 mph61%30.36 "HgN/A
1:00 PM45 °FPartly sunny.14 mph61%30.36 "HgN/A
12:30 PM45 °FPartly sunny.14 mph71%30.36 "HgN/A
12:00 PM45 °FPartly sunny.14 mph71%30.39 "HgN/A
11:30 AM45 °FBroken clouds.13 mph71%30.39 "HgN/A
11:00 AM45 °FPartly sunny.10 mph66%30.42 "HgN/A
10:30 AM45 °FPartly sunny.8 mph71%30.39 "HgN/A
10:00 AM43 °FPartly sunny.9 mph76%30.39 "HgN/A
9:30 AM43 °FPartly sunny.5 mph76%30.39 "HgN/A
9:00 AM41 °FPartly sunny.5 mph81%30.39 "HgN/A
8:30 AM41 °FPartly sunny.5 mph81%30.36 "HgN/A
8:00 AM41 °FPassing clouds.7 mph81%30.36 "HgN/A
7:30 AM43 °FPassing clouds.9 mph76%30.36 "HgN/A
7:00 AM43 °FPassing clouds.9 mph81%30.36 "HgN/A
6:30 AM45 °FPassing clouds.6 mph76%30.36 "HgN/A
6:00 AM45 °FPassing clouds.12 mph81%30.33 "HgN/A
5:30 AM45 °FPassing clouds.10 mph87%30.33 "HgN/A
5:00 AM46 °FPassing clouds.13 mph87%30.30 "HgN/A
Weather by CustomWeather, © 2014

See weather overviewHow to use our weather pages